Total_Precipitation_Accumulation
0.11 0.11 0.09 0.15 0.11 0.04 0.05 0.08 0.03 0.03 0.05 0.02 0.03 0.04 0.03 0.03 0.06 0.10 0.16 0.33 0.56 0.65 0.51 0.36 0.27 0.21 0.20 0.21 0.23 0.23 0.22 0.22 0.24 0.25 0.22 0.17 0.16 0.13 0.09 0.07 0.10 0.12 0.10
0.11 0.13 0.09 0.09 0.06 0.07 0.09 0.05 0.04 0.05 0.06 0.01 0.01 0.02 0.02 0.02 0.04 0.09 0.20 0.31 0.50 0.76 0.85 0.68 0.53 0.42 0.31 0.24 0.23 0.25 0.23 0.21 0.20 0.22 0.20 0.15 0.13 0.11 0.08 0.07 0.12 0.15 0.14
0.14 0.18 0.14 0.10 0.09 0.10 0.09 0.08 0.10 0.07 0.07 0.02 0.01 0.01 0.02 0.04 0.04 0.04 0.09 0.23 0.31 0.40 0.63 0.77 0.76 0.66 0.47 0.31 0.25 0.20 0.20 0.20 0.19 0.19 0.19 0.15 0.11 0.09 0.08 0.09 0.11 0.12 0.12
0.23 0.30 0.29 0.23 0.22 0.21 0.15 0.12 0.08 0.07 0.08 0.06 0.05 0.03 0.02 0.02 0.04 0.03 0.03 0.04 0.07 0.09 0.16 0.24 0.31 0.41 0.47 0.43 0.34 0.24 0.20 0.16 0.14 0.15 0.15 0.12 0.09 0.08 0.08 0.08 0.08 0.09 0.10
0.47 0.51 0.54 0.43 0.32 0.33 0.28 0.19 0.14 0.15 0.11 0.12 0.09 0.08 0.03 0.02 0.01 0.01 0.01 0.01 0.01 0.03 0.06 0.06 0.08 0.12 0.20 0.26 0.31 0.31 0.25 0.18 0.13 0.12 0.11 0.09 0.08 0.08 0.08 0.08 0.07 0.09 0.10
0.78 0.80 0.80 0.72 0.59 0.54 0.51 0.37 0.34 0.30 0.27 0.25 0.17 0.12 0.07 0.04 0.02 0.02 0.02 0.02 0.02 0.01 0.01 0.01 0.03 0.04 0.05 0.08 0.11 0.18 0.22 0.19 0.15 0.13 0.11 0.09 0.07 0.07 0.08 0.08 0.09 0.09 0.10
1.17 1.18 1.06 1.13 1.04 0.91 0.87 0.71 0.69 0.64 0.48 0.31 0.45 0.46 0.22 0.09 0.05 0.04 0.03 0.01 0.01 0.01 0.01 0.00 0.02 0.03 0.02 0.02 0.03 0.06 0.10 0.12 0.12 0.11 0.10 0.09 0.08 0.07 0.08 0.09 0.10 0.13 0.13
1.58 1.43 1.38 1.48 1.43 1.42 1.44 1.18 1.10 1.03 0.77 0.50 0.71 0.88 0.54 0.30 0.13 0.05 0.04 0.03 0.03 0.03 0.02 0.01 0.01 0.01 0.01 0.01 0.01 0.01 0.03 0.06 0.09 0.09 0.08 0.07 0.07 0.06 0.06 0.07 0.11 0.15 0.13
2.00 1.85 1.75 1.74 1.64 1.60 1.72 1.68 1.51 1.38 1.21 0.90 0.78 0.89 0.78 0.64 0.41 0.13 0.07 0.07 0.07 0.06 0.05 0.03 0.01 0.01 0.00 0.01 0.01 0.00 0.01 0.02 0.05 0.07 0.07 0.06 0.07 0.06 0.05 0.06 0.11 0.13 0.10
2.15 2.07 1.98 1.95 1.84 1.66 1.67 1.72 1.65 1.63 1.64 1.35 1.08 0.86 0.69 0.67 0.61 0.36 0.16 0.10 0.13 0.12 0.11 0.07 0.04 0.02 0.01 0.00 0.01 0.00 0.00 0.01 0.02 0.05 0.07 0.07 0.08 0.07 0.06 0.07 0.11 0.12 0.10
1.85 1.82 1.89 1.96 1.85 1.72 1.67 1.77 1.81 1.84 1.71 1.58 1.39 1.25 1.09 0.92 0.64 0.58 0.45 0.23 0.15 0.14 0.15 0.13 0.10 0.07 0.04 0.03 0.03 0.01 0.00 0.00 0.01 0.03 0.04 0.07 0.09 0.10 0.11 0.11 0.10 0.11 0.12
1.61 1.57 1.64 1.73 1.76 1.69 1.60 1.58 1.65 1.71 1.71 1.72 1.59 1.40 1.30 1.18 1.07 0.94 0.67 0.45 0.30 0.16 0.14 0.14 0.12 0.10 0.07 0.04 0.03 0.02 0.00 0.00 0.01 0.02 0.02 0.03 0.05 0.08 0.11 0.13 0.12 0.11 0.11
1.50 1.46 1.45 1.53 1.60 1.56 1.58 1.62 1.57 1.53 1.59 1.62 1.59 1.50 1.43 1.24 1.10 1.10 0.91 0.68 0.53 0.28 0.12 0.09 0.10 0.10 0.09 0.06 0.04 0.04 0.02 0.01 0.01 0.01 0.02 0.02 0.03 0.04 0.07 0.15 0.20 0.22 0.28
1.12 1.07 1.10 1.19 1.34 1.41 1.47 1.51 1.50 1.46 1.44 1.41 1.45 1.47 1.47 1.39 1.17 1.05 1.01 0.99 0.83 0.60 0.36 0.18 0.12 0.11 0.11 0.09 0.08 0.08 0.04 0.03 0.02 0.01 0.01 0.01 0.02 0.03 0.04 0.08 0.14 0.22 0.43
0.79 0.77 0.78 0.88 1.01 1.12 1.19 1.24 1.31 1.33 1.32 1.27 1.29 1.30 1.26 1.31 1.24 1.07 0.99 0.98 0.99 0.83 0.71 0.51 0.28 0.15 0.14 0.12 0.11 0.08 0.06 0.05 0.04 0.03 0.02 0.01 0.01 0.02 0.02 0.03 0.03 0.05 0.11
0.67 0.69 0.67 0.70 0.76 0.84 0.93 0.99 1.06 1.12 1.09 1.03 1.03 1.04 1.09 1.17 1.23 1.19 1.13 1.06 1.03 0.94 0.84 0.67 0.43 0.23 0.18 0.19 0.18 0.12 0.11 0.09 0.05 0.04 0.03 0.02 0.01 0.01 0.01 0.01 0.01 0.01 0.01
0.66 0.60 0.60 0.67 0.67 0.70 0.73 0.80 0.92 1.03 0.98 0.94 0.87 0.86 0.95 1.01 1.18 1.24 1.19 1.09 1.04 0.98 0.87 0.81 0.59 0.34 0.24 0.22 0.22 0.15 0.11 0.10 0.07 0.04 0.03 0.03 0.02 0.02 0.01 0.01 0.01 0.00 0.01
0.55 0.55 0.61 0.62 0.60 0.62 0.64 0.73 0.85 0.90 0.91 0.83 0.76 0.72 0.76 0.83 0.97 1.11 1.20 1.11 1.05 0.98 0.96 0.92 0.73 0.50 0.37 0.30 0.24 0.18 0.13 0.11 0.11 0.09 0.08 0.06 0.04 0.04 0.02 0.01 0.01 0.01 0.01
0.50 0.56 0.55 0.59 0.58 0.56 0.61 0.66 0.70 0.71 0.64 0.60 0.60 0.60 0.63 0.68 0.76 0.88 1.01 1.09 1.04 0.97 1.00 1.02 0.86 0.65 0.48 0.36 0.31 0.26 0.19 0.17 0.15 0.12 0.11 0.09 0.07 0.05 0.04 0.03 0.02 0.02 0.01
0.41 0.45 0.50 0.52 0.55 0.53 0.53 0.55 0.56 0.62 0.55 0.47 0.41 0.41 0.45 0.48 0.54 0.66 0.78 0.90 1.00 1.03 1.04 1.06 0.98 0.75 0.56 0.42 0.32 0.30 0.31 0.26 0.24 0.18 0.14 0.13 0.12 0.10 0.08 0.07 0.05 0.04 0.03
0.31 0.35 0.45 0.56 0.61 0.59 0.60 0.59 0.51 0.53 0.54 0.51 0.44 0.38 0.33 0.34 0.39 0.45 0.55 0.74 0.87 0.98 1.05 1.09 1.05 0.90 0.72 0.58 0.44 0.37 0.36 0.40 0.40 0.32 0.26 0.22 0.21 0.17 0.15 0.11 0.08 0.06 0.05
0.26 0.29 0.34 0.44 0.58 0.57 0.67 0.65 0.56 0.51 0.52 0.49 0.46 0.47 0.46 0.41 0.32 0.25 0.25 0.37 0.53 0.71 0.86 0.96 1.00 0.91 0.76 0.66 0.59 0.51 0.43 0.38 0.39 0.38 0.37 0.37 0.34 0.31 0.30 0.27 0.24 0.20 0.15
0.27 0.29 0.34 0.43 0.57 0.70 0.67 0.53 0.57 0.54 0.50 0.48 0.43 0.43 0.46 0.45 0.49 0.42 0.33 0.28 0.29 0.37 0.53 0.68 0.75 0.76 0.81 0.69 0.56 0.45 0.39 0.36 0.35 0.35 0.35 0.36 0.36 0.35 0.35 0.36 0.37 0.35 0.32
0.28 0.30 0.34 0.38 0.43 0.57 0.55 0.46 0.58 0.58 0.58 0.56 0.50 0.48 0.51 0.49 0.48 0.59 0.58 0.50 0.42 0.41 0.51 0.40 0.43 0.63 0.68 0.63 0.54 0.46 0.43 0.38 0.32 0.28 0.28 0.31 0.32 0.31 0.27 0.26 0.27 0.27 0.27
0.32 0.31 0.31 0.33 0.35 0.41 0.45 0.39 0.45 0.55 0.63 0.60 0.52 0.51 0.54 0.53 0.65 0.67 0.58 0.55 0.52 0.49 0.67 0.68 0.63 0.57 0.51 0.44 0.42 0.45 0.43 0.38 0.35 0.30 0.26 0.25 0.27 0.32 0.32 0.29 0.27 0.25 0.23
0.40 0.36 0.34 0.32 0.35 0.36 0.45 0.31 0.36 0.47 0.56 0.64 0.59 0.54 0.71 0.66 0.65 0.54 0.40 0.50 0.57 0.54 0.52 0.52 0.52 0.48 0.40 0.34 0.33 0.34 0.42 0.42 0.37 0.35 0.31 0.27 0.27 0.29 0.31 0.29 0.28 0.27 0.25